SL-3 R/B

Last updated on Fri Dec 19 2025 00:02:16 GMT+0000 (Coordinated Universal Time)

1 19046U 88032B 25352.59349787 .00003728 00000+0 18086-3 0 9995 2 19046 97.5078 331.2735 0027342 152.9021 207.3647 15.18798712 39796
UTC large
Height (km)
Speed (km/s)
/
Latitude / Longitude
Inclination (degrees)
Orbital Period (minutes)
Azimuth
Elevation
Range (km)
Doppler Factor

Next 0 passes for location: London (51.5072 / 0.1276)

Sorry there are no passes over London.